Tracking 25648 objects as of 17-May-2022
HD Live streaming from Space Station
objects crossing your sky now

COSMOS 2251 DEB

Track COSMOS 2251 DEB now!
10-day predictions


NORAD ID: 38057
Int'l Code: 1993-036BRP
Perigee: 749.0 km
Apogee: 1,000.6 km
Inclination: 74.0 °
Period: 102.3 minutes
Semi major axis: 7245 km
RCS: 0.0099 m2 (small)
Launch date: June 16, 1993
Source: Commonwealth of Independent States (former USSR) (CIS)
Launch site: PLESETSK MISSILE AND SPACE COMPLEX (PKMTR)

Note: This is SATELLITE DEBRIS
aabbcc
Your satellite tracking list
Your tracking list is empty




NASA's NSSDC Master Catalog

Two Line Element Set (TLE):
1 38057U 93036BRP 22123.75206277  .00002028  00000-0  10603-2 0  9994
2 38057  74.0118 255.8807 0173581 348.4268  11.2898 14.07583103412975
Source of the keplerian elements: AFSPC